User: anonymous   Login
Location: Unspecified
(0.0000°N, 0.0000°E)
Time: 01:44:25
(UTC+01:00)
Language:

Gbstr 26 Del rocket - Orbit

View from above orbital plane
View from above orbital plane
View from above satellite
View from above satellite

Ground track
Ground track

The orbit data is extracted from the following two-line orbital elements,

1 25876U 99041E   17016.00617221 -.00000183  00000-0  84031-5 0  9999
2 25876  51.7656 197.2312 0531474 304.5843  50.6026 14.03972659893236
Epoch (UTC): 16 January 2017 00:08:53
Eccentricity: 0.0531474
inclination: 51.7656°
perigee height: 494 km
apogee height: 1266 km
right ascension of ascending node: 197.2312°
argument of perigee: 304.5843°
revolutions per day: 14.03972659
mean anomaly at epoch: 50.6026°
orbit number at epoch: 89323

The dashed part of the orbit path shows where the satellite is in the earth's shadow,  

DLR